Mackinac Island, MI

6:25 PM EDT on May 29, 2017 (GMT -0400)
Mackinac Island

Weather History for KMCD - October, 2012

Change the Weather History Date:

Sunday, October 7, 2012

  Actual Average Record
Temperature  
Mean Temperature 38 °F -  
Max Temperature 44 °F 55 °F 71 °F (2004)
Min Temperature 31 °F 43 °F 30 °F (1999)
Degree Days  
Heating Degree Days 28    
Moisture  
Dew Point 33 °F    
Average Humidity 78    
Maximum Humidity 95    
Minimum Humidity 63    
Precipitation  
Precipitation 0.00 in - - ()
Sea Level Pressure  
Sea Level Pressure 30.05 in    
Wind  
Wind Speed 6 mph (SW)    
Max Wind Speed 14 mph    
Max Gust Speed 21 mph    
Visibility 10 miles    
Events Rain    
Averages and records for this station are not official NWS values.
T = Trace of Precipitation, MM = Missing Value Source: NWS Daily Summary

Daily Weather History Graph

Daily Weather History Graph

Search for Another Location

Airport or City:

Trip Planner

Search our weather history database for the weather conditions in past years. The results will help you decide how hot, cold, wet, or windy it might be!

Date:

Astronomy

Oct. 07, 2012 Rise Set
Actual Time 7:45 AM EDT 7:06 PM EDT
Civil Twilight 7:15 AM EDT 7:36 PM EDT
Nautical Twilight 6:40 AM EDT 8:10 PM EDT
Astronomical Twilight 6:06 AM EDT 8:45 PM EDT
Moon No Moon Rise 2:34 PM EDT (10/7)
Length of Visible Light 12h 20m
Length of Day
11h 21m
Waning Gibbous, 56% of the Moon is Illuminated
Oct 7
Waning Gibbous
Oct 8
Last Quarter
Oct 15
New
Oct 21
First Quarter
Oct 29
Full

Hourly Weather History & Observations

Time (EDT) Temp. Windchill Dew Point Humidity Pressure Visibility Wind Dir Wind Speed Gust Speed Precip Events Conditions
12:15 AM 36.9 °F 29.6 °F 30.0 °F 76% 30.08 in 10.0 mi NW 10.4 mph - N/A   Overcast
12:34 AM 36.1 °F 31.4 °F 30.2 °F 79% 30.08 in 10.0 mi NW 5.8 mph - N/A   Overcast
12:54 AM 35.2 °F 31.2 °F 30.4 °F 82% 30.08 in 10.0 mi NNW 4.6 mph - N/A   Mostly Cloudy
1:15 AM 34.3 °F 29.2 °F 30.6 °F 86% 30.08 in 10.0 mi North 5.8 mph - N/A   Mostly Cloudy
1:34 AM 34.7 °F 27.5 °F 31.1 °F 87% 30.08 in 10.0 mi NNW 9.2 mph - N/A   Overcast
1:54 AM 36.0 °F 28.5 °F 31.1 °F 82% 30.08 in 10.0 mi NNW 10.4 mph 16.1 mph N/A   Overcast
2:15 AM 36.0 °F 30.3 °F 31.5 °F 84% 30.08 in 10.0 mi North 6.9 mph - N/A   Overcast
2:34 AM 36.0 °F - 31.5 °F 84% 30.08 in 10.0 mi Calm Calm - N/A   Overcast
2:54 AM 35.6 °F - 31.8 °F 86% 30.08 in 10.0 mi Calm Calm - N/A   Overcast
3:15 AM 35.8 °F - 32.0 °F 86% 30.08 in 10.0 mi Calm Calm - N/A   Overcast
3:34 AM 35.1 °F 32.2 °F 32.0 °F 89% 30.07 in 10.0 mi WNW 3.5 mph - N/A   Mostly Cloudy
3:54 AM 34.7 °F - 32.4 °F 91% 30.06 in 10.0 mi Calm Calm - N/A   Overcast
4:15 AM 34.7 °F - 32.5 °F 92% 30.06 in 10.0 mi Calm Calm - N/A   Overcast
4:34 AM 34.9 °F 30.8 °F 32.4 °F 91% 30.07 in 10.0 mi WNW 4.6 mph - N/A   Overcast
4:54 AM 34.9 °F 29.9 °F 32.0 °F 89% 30.07 in 10.0 mi WNW 5.8 mph - N/A   Mostly Cloudy
5:14 AM 34.7 °F 29.6 °F 31.6 °F 89% 30.07 in 10.0 mi WNW 5.8 mph - N/A   Mostly Cloudy
5:34 AM 33.4 °F 30.4 °F 30.7 °F 90% 30.07 in 10.0 mi WNW 3.5 mph - N/A   Scattered Clouds
5:55 AM 32.0 °F 28.7 °F 30.0 °F 92% 30.07 in 10.0 mi WNW 3.5 mph - N/A   Scattered Clouds
6:14 AM 32.0 °F 27.5 °F 30.0 °F 92% 30.07 in 10.0 mi NW 4.6 mph - N/A   Mostly Cloudy
6:34 AM 31.5 °F 26.8 °F 29.7 °F 93% 30.07 in 10.0 mi NNW 4.6 mph - N/A   Overcast
6:55 AM 32.0 °F 28.7 °F 30.7 °F 95% 30.06 in 10.0 mi NNW 3.5 mph - N/A   Overcast
7:14 AM 32.4 °F - 31.1 °F 95% 30.07 in 10.0 mi Calm Calm - N/A   Overcast
7:34 AM 32.5 °F 29.3 °F 31.1 °F 94% 30.07 in 10.0 mi WNW 3.5 mph - N/A   Overcast
7:55 AM 33.4 °F - 31.8 °F 94% 30.07 in 10.0 mi Calm Calm - N/A   Overcast
8:14 AM 34.0 °F 29.8 °F 32.0 °F 92% 30.06 in 10.0 mi WSW 4.6 mph - N/A   Overcast
8:34 AM 35.6 °F 31.7 °F 32.9 °F 90% 30.07 in 10.0 mi SSW 4.6 mph - N/A   Overcast
8:54 AM 38.3 °F - 34.0 °F 84% 30.08 in 10.0 mi Calm Calm - N/A   Overcast
9:14 AM 38.8 °F 35.4 °F 32.9 °F 79% 30.08 in 10.0 mi SW 4.6 mph - N/A   Mostly Cloudy
9:35 AM 39.4 °F 35.2 °F 32.0 °F 75% 30.08 in 10.0 mi SW 5.8 mph - N/A   Clear
9:54 AM 41.5 °F 39.6 °F 31.6 °F 68% 30.08 in 10.0 mi SW 3.5 mph - N/A   Mostly Cloudy
10:14 AM 40.3 °F 36.3 °F 30.4 °F 68% 30.07 in 10.0 mi South 5.8 mph - N/A   Mostly Cloudy
10:35 AM 41.0 °F 36.4 °F 31.1 °F 68% 30.07 in 10.0 mi SSW 6.9 mph - N/A   Scattered Clouds
10:54 AM 40.8 °F 36.9 °F 31.3 °F 69% 30.07 in 10.0 mi South 5.8 mph - N/A   Mostly Cloudy
11:14 AM 43.2 °F 40.5 °F 32.0 °F 65% 30.07 in 10.0 mi SW 4.6 mph - N/A   Scattered Clouds
11:35 AM 43.2 °F 39.7 °F 32.0 °F 65% 30.06 in 10.0 mi South 5.8 mph - N/A   Clear
11:54 AM 43.3 °F 39.9 °F 32.0 °F 64% 30.05 in 10.0 mi SSW 5.8 mph - N/A   Mostly Cloudy
12:14 PM 44.1 °F 40.1 °F 32.0 °F 63% 30.06 in 10.0 mi West 6.9 mph - N/A   Overcast
12:35 PM 42.3 °F 37.3 °F 32.7 °F 69% 30.06 in 10.0 mi North 8.1 mph - N/A   Overcast
12:54 PM 42.8 °F - 31.6 °F 65% 30.05 in 10.0 mi Calm Calm - N/A   Mostly Cloudy
1:14 PM 42.1 °F 39.2 °F 32.0 °F 67% 30.05 in 10.0 mi South 4.6 mph - N/A Rain Light Rain
1:34 PM 40.8 °F 33.3 °F 33.4 °F 75% 30.05 in 10.0 mi SW 13.8 mph 20.7 mph N/A   Overcast
1:54 PM 42.1 °F 37.1 °F 33.6 °F 72% 30.04 in 10.0 mi SW 8.1 mph - N/A   Overcast
2:14 PM 42.8 °F 38.6 °F 34.2 °F 72% 30.04 in 10.0 mi SW 6.9 mph - N/A   Scattered Clouds
2:35 PM 43.0 °F 38.2 °F 31.3 °F 63% 30.03 in 10.0 mi SW 8.1 mph - N/A   Mostly Cloudy
2:54 PM 41.4 °F 35.2 °F 31.3 °F 67% 30.03 in 10.0 mi SSW 10.4 mph - N/A   Overcast
3:14 PM 41.0 °F 35.8 °F 32.0 °F 70% 30.03 in 10.0 mi South 8.1 mph - N/A   Overcast
3:34 PM 41.5 °F 37.1 °F 33.3 °F 72% 30.03 in 10.0 mi South 6.9 mph - N/A   Overcast
3:54 PM 41.9 °F - 33.6 °F 72% 30.02 in 10.0 mi Calm Calm - N/A   Overcast
4:14 PM 43.0 °F 39.5 °F 34.7 °F 73% 30.02 in 10.0 mi SSW 5.8 mph - N/A   Overcast
4:34 PM 42.8 °F 39.3 °F 33.8 °F 70% 30.01 in 10.0 mi South 5.8 mph - N/A   Overcast
4:54 PM 43.7 °F 39.1 °F 34.0 °F 69% 30.01 in 10.0 mi South 8.1 mph - N/A   Overcast
5:15 PM 43.0 °F 38.8 °F 33.6 °F 70% 30.01 in 10.0 mi SSW 6.9 mph - N/A   Mostly Cloudy
5:34 PM 43.0 °F 38.8 °F 32.9 °F 68% 30.01 in 10.0 mi SSW 6.9 mph - N/A   Mostly Cloudy
5:54 PM 42.8 °F 37.0 °F 33.4 °F 70% 30.01 in 10.0 mi SSW 10.4 mph - N/A   Mostly Cloudy
6:14 PM 42.8 °F 37.0 °F 34.0 °F 71% 30.01 in 10.0 mi SSW 10.4 mph - N/A   Overcast
6:34 PM 42.1 °F 37.1 °F 34.0 °F 73% 30.01 in 10.0 mi SSW 8.1 mph - N/A   Mostly Cloudy
6:54 PM 41.9 °F 36.3 °F 34.2 °F 74% 30.01 in 10.0 mi SSW 9.2 mph - N/A   Mostly Cloudy
7:14 PM 41.4 °F 36.8 °F 35.1 °F 78% 30.01 in 10.0 mi South 6.9 mph - N/A   Clear
7:34 PM 41.4 °F 36.2 °F 35.4 °F 79% 30.01 in 10.0 mi SSW 8.1 mph - N/A   Scattered Clouds
7:54 PM 41.9 °F 35.9 °F 35.8 °F 79% 30.01 in 10.0 mi SSW 10.4 mph - N/A   Overcast
8:14 PM 41.9 °F 36.3 °F 34.9 °F 76% 30.01 in 10.0 mi SSW 9.2 mph - N/A   Overcast
8:35 PM 41.9 °F 36.3 °F 35.1 °F 77% 30.01 in 10.0 mi SSW 9.2 mph - N/A   Mostly Cloudy
8:54 PM 42.1 °F 36.6 °F 34.9 °F 76% 30.01 in 10.0 mi SSW 9.2 mph - N/A   Mostly Cloudy
9:14 PM 41.9 °F 36.3 °F 34.9 °F 76% 30.01 in 10.0 mi SSW 9.2 mph - N/A   Mostly Cloudy
9:34 PM 41.9 °F 36.9 °F 34.3 °F 75% 30.01 in 10.0 mi SSW 8.1 mph - N/A   Scattered Clouds
9:55 PM 41.9 °F 36.9 °F 34.7 °F 76% 30.01 in 10.0 mi South 8.1 mph - N/A   Scattered Clouds
10:14 PM 41.5 °F 37.1 °F 34.7 °F 77% 30.01 in 10.0 mi South 6.9 mph - N/A   Scattered Clouds
10:34 PM 41.9 °F 35.9 °F 34.7 °F 76% 30.01 in 10.0 mi SSW 10.4 mph 16.1 mph N/A   Mostly Cloudy
10:55 PM 41.9 °F 36.3 °F 34.2 °F 74% 30.01 in 10.0 mi SSW 9.2 mph 16.1 mph N/A   Overcast
11:14 PM 42.1 °F 36.1 °F 33.8 °F 72% 30.01 in 10.0 mi SSW 10.4 mph 19.6 mph N/A   Mostly Cloudy
11:34 PM 42.3 °F 36.3 °F 33.1 °F 70% 30.00 in 10.0 mi SSW 10.4 mph 20.7 mph N/A   Scattered Clouds
11:55 PM 41.5 °F 36.4 °F 33.4 °F 73% 30.00 in 10.0 mi South 8.1 mph 20.7 mph N/A   Clear